User: anonymous   Login
Location: St. Louis
(38.6270°N, 90.1994°W)
Time: 21:01:27
(UTC-05:00)
Language:

COSMOS 1275 DEB - Orbit

View from above orbital plane
View from above orbital plane
View from above satellite
View from above satellite

Ground track
Ground track

The orbit data is extracted from the following two-line orbital elements,

1 42232U 81053UY  22181.23859538  .00000482  00000-0  61099-3 0  9999
2 42232  83.0130 177.5069 0190863  89.0497 273.2509 13.54119590411584
Epoch (UTC): 30 June 2022 05:43:34
Eccentricity: 0.0190863
inclination: 83.0130°
perigee height: 915 km
apogee height: 1199 km
right ascension of ascending node: 177.5069°
argument of perigee: 89.0497°
revolutions per day: 13.54119590
mean anomaly at epoch: 273.2509°
orbit number at epoch: 41158

The dashed part of the orbit path shows where the satellite is in the earth's shadow,  

DLR